Content
SEND FEEDBACK

Daily
Averages
Monthly
Summary
Australia

GATTON, QUEENSLAND


Home > Oceania > Australia > Queensland
Elevation: 308 feet     Latitude: 27 33S     Longitude: 152 20E

WEATHER
 
SELECT A DAY
Number of Records: 167,555;   Date Range: 10/22/03 - 8/31/14
 
SHARE

PRINT THIS DATA

[ ← Previous Day ]
WEATHER ALMANAC - JANUARY 31, 2013
[ Next Day → ]
[ °C ]   °F
Weather ElementAverageHighLow
Temperature77.6 °F84.2 °F (3:00 pm)73.4 °F (1:30 am)
Dewpoint69.2 °F71.6 °F (11:00 am)66.2 °F (5:30 pm)
Humidity75.7 %88 % (1:30 am)61 % (5:30 pm)
Barometer29.87 in29.92 in (12:30 am)29.83 in (2:30 pm)
Wind Speed8.3 mph17.3 mph (4:30 pm)
Weather ElementAverage
Visibility6.2 mi
Wind DirectionESE (97.3 °)

Weather ElementTotal
Precipitation---
Cooling Degree Days13.8 (Base 65)
Growing Degree Days28.8 (Base 50)
Averaged from 44 records on January 31, 2013
WEATHER CONDITIONS BREAKOUT
WIND DIRECTION BREAKOUT
WEATHER BY HOUR - JANUARY 31, 2013
[ °C ]   °F
Local TimeTemperatureDewpointHumidityBarometerVisibilityWind DirectionWind SpeedGust SpeedPrecipitationEventsConditions
12:30 AM75.2 °F69.8 °F83 %29.92 in6.2 miSE (130°)5.8 mphMostly Cloudy
1:00 AM75.2 °F69.8 °F83 %29.89 in6.2 miSE (140°)5.8 mphMostly Cloudy
1:30 AM73.4 °F69.8 °F88 %29.89 in6.2 miESE (110°)4.6 mphScattered Clouds
2:00 AM73.4 °F69.8 °F88 %29.89 in6.2 miSSE (160°)5.8 mphScattered Clouds
2:30 AM73.4 °F69.8 °F88 %29.89 in6.2 miSouth (180°)4.6 mphMostly Cloudy
3:00 AM73.4 °F69.8 °F88 %29.89 in6.2 miSouth (170°)4.6 mphOvercast
4:00 AM73.4 °F69.8 °F88 %29.89 in6.2 miSSE (150°)10.4 mphOvercast
4:30 AM73.4 °F69.8 °F88 %29.89 in6.2 miSouth (170°)6.9 mphMostly Cloudy
5:00 AM73.4 °F69.8 °F88 %29.89 in6.2 miSSE (150°)3.5 mphMostly Cloudy
5:30 AM73.4 °F69.8 °F88 %29.89 in6.2 miCalmOvercast
6:00 AM73.4 °F69.8 °F88 %29.92 in6.2 miCalmOvercast
7:00 AM75.2 °F69.8 °F83 %29.92 in6.2 miSSE (150°)4.6 mphOvercast
8:00 AM78.8 °F69.8 °F74 %29.92 in6.2 miSE (130°)9.2 mphOvercast
8:30 AM78.8 °F69.8 °F74 %29.92 in6.2 miEast (90°)6.9 mphMostly Cloudy
9:00 AM78.8 °F69.8 °F74 %29.92 in6.2 miESE (110°)8.1 mphOvercast
9:30 AM78.8 °F69.8 °F74 %29.92 in6.2 miESE (120°)5.8 mphOvercast
10:00 AM78.8 °F69.8 °F74 %29.92 in6.2 miESE (110°)6.9 mphOvercast
10:30 AM78.8 °F69.8 °F74 %29.92 in6.2 miCalmMostly Cloudy
11:00 AM78.8 °F71.6 °F78 %29.92 in6.2 miNorth (350°)8.1 mphMostly Cloudy
11:30 AM77.0 °F71.6 °F83 %29.89 in6.2 miNNE (30°)9.2 mphRainLight Rain Showers
12:00 PM80.6 °F69.8 °F70 %29.89 in6.2 miNNE (30°)8.1 mphMostly Cloudy
12:30 PM78.8 °F69.8 °F74 %29.89 in6.2 miEast (90°)11.5 mphMostly Cloudy
1:00 PM78.8 °F69.8 °F74 %29.86 in6.2 miENE (70°)12.7 mphMostly Cloudy
1:30 PM80.6 °F69.8 °F70 %29.86 in6.2 miEast (90°)12.7 mphMostly Cloudy
2:00 PM82.4 °F69.8 °F66 %29.86 in6.2 miNE (40°)10.4 mphScattered Clouds
2:30 PM82.4 °F69.8 °F66 %29.83 in6.2 miEast (80°)15.0 mphScattered Clouds
3:00 PM84.2 °F69.8 °F62 %29.83 in6.2 miENE (60°)15.0 mphScattered Clouds
3:30 PM82.4 °F69.8 °F66 %29.83 in6.2 miENE (70°)15.0 mphScattered Clouds
4:00 PM82.4 °F68.0 °F62 %29.83 in6.2 miENE (70°)13.8 mphScattered Clouds
4:30 PM82.4 °F68.0 °F62 %29.83 in6.2 miEast (90°)17.3 mphScattered Clouds
5:00 PM82.4 °F68.0 °F62 %29.83 in6.2 miEast (80°)17.3 mphScattered Clouds
5:30 PM80.6 °F66.2 °F61 %29.83 in6.2 miENE (70°)13.8 mphPartly Cloudy
6:00 PM80.6 °F66.2 °F61 %29.83 in6.2 miEast (80°)16.1 mphScattered Clouds
6:30 PM78.8 °F66.2 °F65 %29.83 inEast (80°)11.5 mphClear
7:00 PM77.0 °F66.2 °F69 %29.83 inENE (70°)9.2 mphClear
7:30 PM77.0 °F66.2 °F69 %29.83 inENE (60°)9.2 mphClear
8:00 PM77.0 °F66.2 °F69 %29.86 in6.2 miENE (70°)6.9 mph
8:30 PM77.0 °F68.0 °F74 %29.83 in6.2 miEast (100°)4.6 mphMostly Cloudy
9:00 PM77.0 °F68.0 °F74 %29.86 in6.2 miENE (70°)8.1 mphScattered Clouds
9:30 PM77.0 °F69.8 °F78 %29.86 in6.2 miEast (90°)5.8 mphOvercast
10:00 PM75.2 °F69.8 °F83 %29.86 in6.2 miEast (100°)5.8 mphScattered Clouds
10:30 PM75.2 °F69.8 °F83 %29.86 in6.2 miEast (90°)4.6 mphMostly Cloudy
11:00 PM75.2 °F69.8 °F83 %29.86 in6.2 miEast (90°)4.6 mphMostly Cloudy
11:30 PM75.2 °F69.8 °F83 %29.83 in6.2 miEast (90°)4.6 mphOvercast
Hourly data recorded from YAMB, located miles away from Gatton, Queensland







STORIES FROM OUR PARTNERS